Regional Weather Roundup
Issued by NWS

Home | Current Version | Previous Version | Text Only | Print | Product List | Glossary Off
Versions: 1 2 3 4 5 6 7 8 9 10 11 12 13 14 15 16 17 18 19 20 21 22 23 24 25 26 27 28 29 30 31 32 33 34 35 36 37 38 39 40 41 42 43 44 45 46 47 48 49 50

000
ASUS43 KLSX 230807
RWRMO

WEATHER SUMMARY FOR MISSOURI
NATIONAL WEATHER SERVICE SPRINGFIELD MO
300 AM CDT SAT MAY 23 2015

NOTE: "FAIR" INDICATES FEW OR NO CLOUDS BELOW 12,000 FEET WITH NO
       SIGNIFICANT WEATHER AND/OR OBSTRUCTIONS TO VISIBILITY.
       CURRENT SKY AND/OR WEATHER CONDITIONS ARE NOT AVAILABLE FOR
       CHILLICOTHE AND FARMINGTON.

MOZ001>031-035>038-043-044-053-054-230900-
...NORTHERN AND WESTERN MISSOURI...

CITY           SKY/WX    TMP DP  RH WIND       PRES   REMARKS
KANSAS CTY INT CLOUDY    61  51  70 SE8       30.20S
KANSAS C DTWN  CLOUDY    63  49  60 SE5       30.19S
LEE`S SUMMIT   CLOUDY    61  49  64 SE5       30.21S
ST JOSEPH      CLOUDY    59  52  77 SE8       30.20S
CHILLICOTHE      N/A     60  54  80 CALM      30.23S
KIRKSVILLE     PTCLDY    52  51  97 CALM      30.25S

$$
MOZ066>068-077>081-088>096-101>105-230900-
...SOUTHWEST MISSOURI...

CITY           SKY/WX    TMP DP  RH WIND       PRES   REMARKS
SPRINGFIELD    CLOUDY    59  48  67 SE13      30.21F
JOPLIN         CLOUDY    60  50  69 SE9       30.19S

$$
MOZ032>034-039>042-045>050-055>058-069>072-230900-
...CENTRAL MISSOURI...

CITY           SKY/WX    TMP DP  RH WIND       PRES   REMARKS
COLUMBIA       CLOUDY    61  53  75 SE6       30.25S
JEFFERSON CITY CLOUDY    61  55  81 E3        30.25R
ROLLA          CLOUDY    58  51  78 S5        30.25R
SEDALIA        CLOUDY    61  54  77 S7        30.24S
WHITEMAN AFB   CLOUDY    61  51  67 SE8       30.21S
WARRENSBURG    CLOUDY    61  50  67 SE5       30.22R
OSAGE BEACH    CLOUDY    61  50  67 E5        30.25S

$$
MOZ051-052-059>065-230900-
...EAST CENTRAL MISSOURI...

CITY           SKY/WX    TMP DP  RH WIND       PRES   REMARKS
ST LOUIS INTL  CLOUDY    65  51  60 CALM      30.26R
SPIRIT OF STL  MOCLDY    60  56  86 CALM      30.25R
ST CHARLES     CLOUDY    61  57  87 CALM      30.25R

$$
MOZ072>076-082>087-097>100-106>115-230900-
...SOUTH CENTRAL AND SOUTHEAST MISSOURI...

CITY           SKY/WX    TMP DP  RH WIND       PRES   REMARKS
CAPE GIRARDEAU CLOUDY    59  58  96 CALM      30.26R
FARMINGTON     CLOUDY    57  54  88 CALM      30.30S
POPLAR BLUFF   CLOUDY    59  55  87 CALM      30.26R
WEST PLAINS    CLOUDY    58  50  75 CALM      30.27S

$$



USA.gov is the U.S. government's official web portal to all federal, state and local government web resources and services.